Latest Weather Observations for Hamilton Island

IDQ60801

Issued at 6:02 am EST Wednesday 10 February 2016 (issued every 30 minutes, with the page automatically refreshed every 10 minutes)

About weather observations | Map of weather stations | Latest weather observations for QLD | Other Formats
Station Details ID: 033106 Name: HAMILTON ISLAND AIRPORT Lat: -20.37 Lon: 148.95 Height: 58.66 m
Data from the previous 72 hours. | See also: Recent months at Hamilton Island
Date/Time
EST
Temp
°C
App
Temp
°C
Dew
Point
Rel
Hum
%
Delta-T
°C
Wind Press
QNH
hPa
Press
MSL
hPa
Rain
since 9 am
mm
Dir
 
Spd
km/h
Gust
km/h
Spd
kts
Gust
kts
10/06:00am 26.6 22.7 21.4 73 3.5 SE 44 50 24 27 1008.4 1008.0 0.2
10/05:30am 26.6 21.7 21.1 72 3.7 SE 48 56 26 30 1007.9 - 0.2
10/05:00am 26.7 22.7 21.2 72 3.7 SE 44 57 24 31 1007.6 - 0.2
10/04:30am 26.7 22.2 21.0 71 3.8 SE 46 59 25 32 1007.5 - 0.2
10/04:00am 26.7 22.2 21.0 71 3.8 SE 46 52 25 28 1007.3 - 0.2
10/03:30am 26.4 21.3 20.7 71 3.8 SE 48 56 26 30 1007.4 - 0.2
10/03:00am 26.6 22.4 21.6 74 3.3 SE 46 56 25 30 1007.6 1007.2 0.2
10/02:30am 26.8 22.9 21.5 72 3.5 SE 44 52 24 28 1007.7 - 0.2
10/02:00am 26.8 23.1 21.8 74 3.3 SE 44 54 24 29 1007.9 - 0.2
10/01:30am 26.6 22.4 21.6 74 3.3 SE 46 52 25 28 1008.1 - 0.2
10/01:00am 26.8 22.9 21.5 72 3.5 SE 44 54 24 29 1008.6 - 0.2
10/12:30am 26.9 22.8 20.7 69 4.1 SE 43 52 23 28 1009.1 - 0.2
10/12:00am 27.1 23.0 21.8 73 3.6 SE 46 57 25 31 1009.5 1009.1 0.2
 
Date/Time
EST
Temp
°C
App
Temp
°C
Dew
Point
Rel
Hum
%
Delta-T
°C
Wind Press
QNH
hPa
Press
MSL
hPa
Rain
since 9 am
mm
Dir
 
Spd
km/h
Gust
km/h
Spd
kts
Gust
kts
09/11:30pm 27.1 22.6 21.8 73 3.6 SE 48 59 26 32 1009.7 - 0.2
09/11:00pm 27.2 23.0 22.4 75 3.2 SE 48 57 26 31 1010.1 - 0.2
09/10:30pm 27.1 23.1 22.7 77 3.0 SE 48 56 26 30 1010.2 - 0.2
09/10:15pm 26.9 22.9 22.7 78 2.8 SE 48 67 26 36 1010.3 - 0.2
09/10:00pm 27.3 23.1 22.3 74 3.4 SE 48 57 26 31 1010.3 - 0.2
09/09:30pm 27.1 24.4 22.7 77 3.0 SE 41 52 22 28 1010.4 - 0.2
09/09:10pm 26.4 23.9 22.3 78 2.8 SE 39 50 21 27 1010.4 - 0.2
09/09:00pm 26.0 22.4 22.1 79 2.6 SE 44 56 24 30 1010.3 1009.9 0.2
09/08:50pm 24.9 21.0 21.4 81 2.3 ESE 44 67 24 36 1010.4 - 0.2
09/08:44pm 26.3 23.6 22.6 80 2.5 ESE 41 59 22 32 1010.3 - 0.2
09/08:30pm 27.1 23.2 22.3 75 3.2 SE 46 54 25 29 1010.2 - 0.2
09/08:00pm 27.5 23.4 21.8 71 3.8 ESE 46 54 25 29 1010.1 - 0.2
09/07:30pm 27.5 23.1 21.3 69 4.1 ESE 46 56 25 30 1009.8 - 0.2
09/07:00pm 27.6 23.6 21.2 68 4.3 SE 44 52 24 28 1009.8 - 0.2
09/06:30pm 27.5 23.9 22.0 72 3.7 SE 44 52 24 28 1009.9 - 0.2
09/06:00pm 27.7 23.7 22.0 71 3.8 SE 46 54 25 29 1009.4 1009.0 0.2
09/05:30pm 27.8 23.3 21.8 70 4.0 SE 48 56 26 30 1009.1 - 0.2
09/05:00pm 27.8 23.7 22.5 73 3.6 SE 48 57 26 31 1008.8 - 0.2
09/04:30pm 27.7 23.3 22.6 74 3.5 SE 50 59 27 32 1008.5 - 0.2
09/04:00pm 28.2 24.3 22.9 73 3.6 SE 48 59 26 32 1008.5 - 0.2
09/03:30pm 27.2 21.5 21.7 72 3.7 SSE 54 65 29 35 1008.3 - 0.2
09/03:00pm 28.5 24.4 22.5 70 4.1 SE 48 59 26 32 1008.7 1008.3 0.2
09/02:30pm 28.4 24.3 22.6 71 3.9 SE 48 57 26 31 1008.9 - 0.2
09/02:00pm 28.7 23.9 21.2 64 5.0 SE 48 59 26 32 1009.0 - 0.2
09/01:35pm 28.7 24.1 21.7 66 4.7 SE 48 56 26 30 1009.2 - 0.2
09/01:30pm 28.2 26.8 22.9 73 3.6 SSE 35 52 19 28 1009.3 - 0.2
09/01:00pm 28.0 25.2 23.1 74 3.4 SSE 43 50 23 27 1009.7 - 0.2
09/12:30pm 29.7 26.9 22.4 65 5.0 SE 41 50 22 27 1009.9 - 0.2
09/12:00pm 29.6 25.6 22.1 64 5.1 SE 46 54 25 29 1010.1 1009.7 0.2
09/11:30am 29.1 25.2 22.3 66 4.6 SE 46 57 25 31 1010.4 - 0.2
09/11:00am 29.0 25.0 22.7 69 4.3 SE 48 54 26 29 1010.5 - 0.2
09/10:30am 28.3 24.4 22.3 70 4.1 SE 46 54 25 29 1010.7 - 0.2
09/10:00am 28.9 25.0 22.2 67 4.5 SE 46 54 25 29 1010.9 - 0.2
09/09:30am 28.6 25.1 22.3 68 4.3 SE 44 52 24 28 1010.9 - 0.0
09/09:00am 28.0 24.0 21.3 67 4.5 SE 44 54 24 29 1011.0 1010.6 0.2
09/08:30am 27.9 24.0 21.2 67 4.5 SE 43 52 23 28 1010.8 - 0.2
09/08:00am 27.8 24.1 21.8 70 4.0 SE 44 52 24 28 1010.6 - 0.2
09/07:30am 27.9 23.8 21.9 70 4.0 SE 46 56 25 30 1010.4 - 0.2
09/07:00am 27.2 23.3 21.5 71 3.8 SE 44 52 24 28 1010.3 - 0.2
09/06:30am 27.1 23.5 22.1 74 3.4 SE 44 50 24 27 1009.9 - 0.2
09/06:00am 27.1 24.1 22.9 78 2.9 SE 43 52 23 28 1009.7 1009.3 0.2
09/05:30am 26.9 24.0 22.3 76 3.1 SE 41 48 22 26 1009.4 - 0.2
09/05:00am 26.7 23.1 21.7 74 3.3 SE 43 46 23 25 1008.8 - 0.2
09/04:30am 26.8 23.1 21.8 74 3.3 SE 44 52 24 28 1008.6 - 0.2
09/04:00am 26.9 23.1 21.6 72 3.5 SE 44 50 24 27 1008.7 - 0.2
09/03:30am 26.9 21.7 20.5 68 4.2 SE 48 56 26 30 1008.4 - 0.2
09/03:00am 26.9 21.8 20.7 69 4.1 SE 48 54 26 29 1008.4 1008.0 0.2
09/02:30am 26.7 21.9 21.2 72 3.7 SE 48 56 26 30 1008.6 - 0.2
09/02:00am 26.8 22.2 22.4 77 3.0 SE 50 57 27 31 1009.0 - 0.2
09/01:38am 26.6 23.7 23.3 82 2.3 SE 44 56 24 30 1009.2 - 0.2
09/01:30am 26.4 23.4 22.9 81 2.4 SE 43 50 23 27 1009.3 - 0.2
09/01:00am 26.4 23.6 24.1 87 1.6 ESE 46 56 25 30 1009.6 - 0.2
09/12:30am 26.6 23.2 23.7 84 2.0 ESE 48 56 26 30 1009.7 - 0.2
09/12:00am 26.5 23.9 23.6 84 2.0 ESE 43 52 23 28 1010.1 1009.7 0.2
 
Date/Time
EST
Temp
°C
App
Temp
°C
Dew
Point
Rel
Hum
%
Delta-T
°C
Wind Press
QNH
hPa
Press
MSL
hPa
Rain
since 9 am
mm
Dir
 
Spd
km/h
Gust
km/h
Spd
kts
Gust
kts
08/11:30pm 26.4 23.6 24.1 87 1.6 ESE 46 57 25 31 1010.5 - 0.2
08/11:21pm 26.3 23.7 23.8 86 1.7 ESE 44 54 24 29 1010.6 - 0.2
08/11:05pm 25.9 23.5 23.9 89 1.4 SE 43 56 23 30 1010.7 - 0.2
08/11:03pm 26.0 24.2 24.2 90 1.2 SE 41 56 22 30 1010.8 - 0.2
08/11:00pm 26.5 25.1 24.3 88 1.5 SE 39 48 21 26 1010.8 - 0.2
08/10:51pm 26.5 24.7 24.2 87 1.6 ESE 41 48 22 26 1011.0 - 0.2
08/10:38pm 26.5 24.0 24.0 86 1.7 SE 44 54 24 29 1011.0 - 0.2
08/10:30pm 26.2 23.3 23.9 87 1.6 SE 46 54 25 29 1010.9 - 0.2
08/10:22pm 25.8 22.8 23.8 89 1.4 SE 46 61 25 33 1011.0 - 0.2
08/10:13pm 26.7 25.0 24.4 87 1.6 SE 41 56 22 30 1010.8 - 0.0
08/10:00pm 26.9 23.5 23.2 80 2.5 SE 46 63 25 34 1010.7 - 0.0
08/09:30pm 27.0 22.9 22.6 77 3.0 SE 48 56 26 30 1010.4 - 0.0
08/09:00pm 26.8 24.3 24.1 85 1.9 SE 44 52 24 28 1010.0 1009.6 0.0
08/08:30pm 26.7 23.2 23.6 83 2.1 SE 48 54 26 29 1010.2 - 0.0
08/08:00pm 26.6 23.2 23.7 84 2.0 ESE 48 54 26 29 1010.1 - 0.0
08/07:35pm 26.6 24.7 23.5 83 2.1 SE 39 46 21 25 1010.1 - 0.0
08/07:30pm 26.5 23.8 23.4 83 2.1 SE 43 50 23 27 1010.1 - 0.0
08/07:00pm 26.3 24.0 24.0 87 1.6 ESE 43 48 23 26 1009.8 - 0.0
08/06:53pm 26.3 24.2 24.3 89 1.4 ESE 43 50 23 27 1009.7 - 0.0
08/06:32pm 26.8 25.0 24.3 86 1.7 ESE 41 48 22 26 1009.3 - 0.0
08/06:30pm 26.9 25.0 24.0 84 2.0 SE 41 48 22 26 1009.3 - 0.0
08/06:01pm 26.9 24.5 23.8 83 2.1 SE 43 50 23 27 1009.5 - 0.0
08/06:00pm 27.0 24.7 24.1 84 2.0 SE 43 50 23 27 1009.5 1009.1 0.0
08/05:44pm 26.9 25.6 23.8 83 2.1 SE 37 48 20 26 1009.4 - 0.0
08/05:30pm 26.7 25.6 23.4 82 2.3 SE 35 43 19 23 1009.1 - 0.0
08/05:00pm 27.0 25.2 24.3 85 1.9 SE 41 50 22 27 1009.0 - 0.0
08/04:30pm 27.4 26.0 24.3 83 2.2 SE 39 46 21 25 1008.4 - 0.0
08/04:00pm 27.8 24.8 24.4 82 2.4 SE 48 56 26 30 1008.2 - 0.0
08/03:30pm 27.8 25.8 24.8 84 2.1 SE 44 52 24 28 1008.2 - 0.0
08/03:02pm 27.5 24.8 24.3 83 2.2 SE 46 54 25 29 1008.1 - 0.0
08/03:00pm 27.7 25.4 24.9 85 2.0 SE 46 52 25 28 1008.1 1007.7 0.0
08/02:30pm 27.5 25.2 24.1 82 2.4 SE 43 50 23 27 1008.4 - 0.0
08/02:00pm 27.4 24.8 24.5 84 2.0 SE 46 59 25 32 1008.8 - 0.0
08/01:30pm 27.3 25.1 24.2 83 2.1 SE 43 50 23 27 1009.0 - 0.0
08/01:00pm 27.6 25.4 24.2 82 2.4 SE 43 50 23 27 1009.2 - 0.0
08/12:30pm 27.3 24.4 24.6 85 1.9 SSE 48 57 26 31 1009.5 - 0.0
08/12:00pm 27.1 24.8 24.4 85 1.9 SSE 44 50 24 27 1010.1 1009.7 0.0
08/11:30am 26.8 24.8 24.8 89 1.4 SSE 44 54 24 29 1010.1 - 0.0
08/11:00am 27.1 24.6 24.7 87 1.7 SSE 46 54 25 29 1010.4 - 0.0
08/10:30am 26.9 24.8 25.3 91 1.1 SSE 46 56 25 30 1010.7 - 0.0
08/10:00am 26.2 24.3 25.0 93 0.8 SSE 44 54 24 29 1010.7 - 0.0
08/09:30am 26.2 23.3 24.6 91 1.1 SSE 48 57 26 31 1010.7 - 0.0
08/09:00am 26.6 24.9 25.0 91 1.1 SE 43 50 23 27 1010.6 1010.2 22.0
08/08:50am 26.4 24.3 24.6 90 1.3 SSE 44 52 24 28 1010.5 - 22.0
08/08:30am 26.5 24.6 24.7 90 1.3 SE 43 50 23 27 1010.5 - 22.0
08/08:25am 26.5 24.5 24.5 89 1.4 SE 43 50 23 27 1010.4 - 22.0
08/08:00am 26.1 23.5 24.5 91 1.1 SE 46 57 25 31 1010.0 - 22.0
08/07:40am 25.9 23.1 24.7 93 0.8 SE 48 56 26 30 1010.0 - 22.0
08/07:30am 26.0 22.5 24.8 93 0.8 SE 52 61 28 33 1009.7 - 22.0
08/07:04am 26.4 23.4 25.0 92 1.0 SE 50 61 27 33 1009.7 - 21.6
08/07:00am 27.0 24.2 24.8 88 1.5 SE 48 57 26 31 1009.7 - 21.4
08/06:30am 26.9 23.0 24.9 89 1.4 SSE 54 61 29 33 1009.1 - 21.4
08/06:00am 26.9 23.8 24.9 89 1.4 SSE 50 57 27 31 1008.6 1008.2 21.4
08/05:30am 26.8 24.5 25.0 90 1.3 SE 46 59 25 32 1008.8 - 21.4
08/05:00am 26.7 23.2 24.9 90 1.3 SSE 52 63 28 34 1008.3 - 21.4
08/04:30am 26.8 22.5 24.8 89 1.4 SSE 56 63 30 34 1008.1 - 21.4
08/04:00am 26.8 23.5 25.2 91 1.1 SSE 52 59 28 32 1008.0 - 21.4
08/03:30am 26.9 23.2 25.1 90 1.3 SSE 54 67 29 36 1008.2 - 21.4
08/03:00am 26.8 22.5 24.8 89 1.4 SSE 56 67 30 36 1007.9 1007.5 21.4
08/02:30am 26.8 23.1 25.2 91 1.1 SSE 54 61 29 33 1008.0 - 21.4
08/02:18am 26.8 23.9 25.8 94 0.7 SSE 52 61 28 33 1008.1 - 21.4
08/02:00am 26.3 22.9 25.6 96 0.5 SSE 54 63 29 34 1008.3 - 21.4
08/01:55am 26.3 23.4 25.8 97 0.4 SSE 52 63 28 34 1008.2 - 21.4
08/01:30am 26.3 23.3 25.6 96 0.5 SSE 52 63 28 34 1008.1 - 21.2
08/01:21am 26.2 23.1 25.5 96 0.5 SSE 52 61 28 33 1008.1 - 21.2
08/01:06am 26.5 24.9 26.0 97 0.4 SSE 46 57 25 31 1008.6 - 21.2
08/01:00am 26.4 23.9 25.9 97 0.4 SSE 50 57 27 31 1009.0 - 21.2
08/12:48am 26.5 24.2 26.2 98 0.2 SSE 50 57 27 31 1009.0 - 21.2
08/12:30am 26.5 25.0 26.2 98 0.2 SSE 46 56 25 30 1009.0 - 21.2
08/12:07am 26.4 25.8 26.2 99 0.1 SSE 41 48 22 26 1009.1 - 21.0
08/12:00am 26.2 25.1 25.9 98 0.2 SE 43 50 23 27 1009.1 1008.7 21.0
 
Date/Time
EST
Temp
°C
App
Temp
°C
Dew
Point
Rel
Hum
%
Delta-T
°C
Wind Press
QNH
hPa
Press
MSL
hPa
Rain
since 9 am
mm
Dir
 
Spd
km/h
Gust
km/h
Spd
kts
Gust
kts
07/11:35pm 26.1 23.6 25.8 98 0.2 SE 50 57 27 31 1009.2 - 20.6
07/11:30pm 25.9 23.6 25.6 98 0.2 SE 48 57 26 31 1009.2 - 20.6
07/11:17pm 25.9 23.2 25.6 98 0.2 SE 50 59 27 32 1009.1 - 20.2
07/11:00pm 26.0 21.7 25.7 98 0.2 SE 59 69 32 37 1009.0 - 19.0
07/10:30pm 26.2 23.2 25.7 97 0.4 SSE 52 63 28 34 1009.3 - 6.2
07/10:16pm 26.4 24.7 25.9 97 0.4 SSE 46 56 25 30 1009.2 - 4.0
07/10:00pm 25.9 25.1 25.2 96 0.5 S 39 48 21 26 1009.5 - 2.8
07/09:30pm 26.7 26.8 26.0 96 0.5 S 37 52 20 28 1008.9 - 2.2
07/09:24pm 26.5 26.3 25.6 95 0.6 S 37 54 20 29 1008.9 - 2.2
07/09:06pm 26.8 25.5 25.9 95 0.6 SSE 44 54 24 29 1008.8 - 2.0
07/09:00pm 27.0 25.9 26.3 96 0.5 SSE 44 54 24 29 1008.8 1008.4 2.0
07/08:33pm 26.7 26.4 26.0 96 0.5 SSE 39 48 21 26 1008.9 - 1.4
07/08:30pm 26.6 25.8 25.9 96 0.5 SSE 41 50 22 27 1009.0 - 1.4
07/08:00pm 26.5 25.7 25.8 96 0.5 SSE 41 52 22 28 1008.5 - 1.4
07/07:52pm 26.5 26.4 25.8 96 0.5 S 37 48 20 26 1008.6 - 1.4
07/07:30pm 26.7 26.9 26.2 97 0.4 S 37 50 20 27 1008.4 - 1.2
07/07:00pm 26.7 26.4 26.0 96 0.5 S 39 48 21 26 1008.1 - 0.4
07/06:30pm 26.8 26.8 25.9 95 0.6 S 37 50 20 27 1007.7 - 0.2
07/06:21pm 26.8 27.2 25.9 95 0.6 S 35 48 19 26 1007.7 - 0.2
07/06:14pm 26.8 27.2 25.9 95 0.6 S 35 48 19 26 1007.7 - 0.2
07/06:00pm 26.7 27.3 25.7 94 0.7 SSE 33 46 18 25 1007.6 1007.2 0.2
07/05:49pm 26.8 26.0 25.8 94 0.7 SSE 41 50 22 27 1007.2 - 0.2
07/05:30pm 27.2 27.3 26.0 93 0.9 SSE 37 48 20 26 1006.8 - 0.2
07/05:25pm 27.0 26.4 25.6 92 1.0 SSE 39 50 21 27 1006.7 - 0.2
07/05:08pm 26.9 26.8 25.7 93 0.8 SSE 37 46 20 25 1006.9 - 0.2
07/05:00pm 27.2 27.1 25.8 92 1.0 SSE 37 46 20 25 1007.0 - 0.2
07/04:30pm 26.9 26.0 25.7 93 0.8 SSE 41 52 22 28 1006.1 - 0.2
07/04:21pm 27.0 26.0 25.6 92 1.0 SSE 41 50 22 27 1006.1 - 0.2
07/04:04pm 27.0 26.6 25.8 93 0.8 SSE 39 52 21 28 1006.4 - 0.2
07/04:00pm 27.1 27.0 25.7 92 1.0 SSE 37 52 20 28 1006.4 - 0.2
07/03:30pm 27.1 26.8 25.5 91 1.1 SSE 37 52 20 28 1006.2 - 0.2
07/03:10pm 27.3 27.3 25.9 92 1.0 SSE 37 48 20 26 1006.6 - 0.2
07/03:00pm 27.1 27.1 25.3 90 1.3 SSE 35 46 19 25 1006.8 1006.4 0.2
07/02:59pm 27.1 27.2 25.5 91 1.1 SSE 35 46 19 25 1006.7 - 0.2
07/02:30pm 27.5 27.5 25.3 88 1.5 S 35 50 19 27 1006.7 - 0.2
07/02:15pm 27.8 28.9 25.0 85 2.0 S 28 46 15 25 1006.6 - 0.2
07/02:00pm 27.9 28.0 24.9 84 2.1 S 33 46 18 25 1006.8 - 0.2
07/01:30pm 28.7 28.7 24.7 79 2.8 SSE 33 46 18 25 1006.9 - 0.2
07/01:08pm 28.9 30.0 24.9 79 2.8 SSE 28 37 15 20 1007.1 - 0.2
07/01:00pm 28.8 29.9 24.4 77 3.1 SSE 26 37 14 20 1007.1 - 0.2
07/12:58pm 29.4 31.4 25.2 78 3.0 S 24 37 13 20 1007.2 - 0.2
07/12:30pm 29.4 31.2 25.4 79 2.8 SSE 26 33 14 18 1007.6 - 0.2
07/12:00pm 28.7 29.9 25.1 81 2.5 SSE 28 35 15 19 1008.0 1007.6 0.2
07/11:30am 28.3 29.8 24.9 82 2.4 SSE 26 37 14 20 1008.3 - 0.0
07/11:00am 27.8 30.5 25.6 88 1.6 S 22 30 12 16 1008.4 - 0.0
07/10:30am 28.3 31.4 25.7 86 1.8 S 20 28 11 15 1008.4 - 0.0
07/10:00am 28.1 31.4 25.1 84 2.1 S 17 22 9 12 1008.4 - 0.0
07/09:30am 27.3 31.1 25.3 89 1.4 S 15 20 8 11 1008.4 - 0.0
07/09:00am 27.5 31.7 25.3 88 1.5 S 13 17 7 9 1008.2 1007.8 2.2
07/08:30am 27.2 31.1 25.4 90 1.3 SW 15 26 8 14 1007.8 - 2.2
07/08:00am 27.2 30.3 25.4 90 1.3 S 19 26 10 14 1007.7 - 2.2
07/07:30am 27.2 30.7 25.4 90 1.3 S 17 20 9 11 1007.1 - 2.2
07/07:00am 27.2 30.8 25.6 91 1.1 S 17 22 9 12 1007.1 - 2.2
07/06:30am 26.8 29.2 25.2 91 1.1 S 22 26 12 14 1006.6 - 2.2

Other Formats:

Comma delimited format used in spreadsheet applications
http://www.bom.gov.au/fwo/IDQ60801/IDQ60801.94368.axf

JavaScript Object Notation format (JSON) in row-major order
http://www.bom.gov.au/fwo/IDQ60801/IDQ60801.94368.json